Regional Weather Roundup
Issued by NWS

Home | Current Version | Previous Version | Graphics & Text | Print | Product List | Glossary Off
Versions: 1 2 3 4 5 6 7 8 9 10 11 12 13 14 15 16 17 18 19 20 21 22 23 24 25 26 27 28 29 30 31 32 33 34 35 36 37 38 39 40 41 42 43 44 45 46 47 48 49 50

000
ASUS43 KTOP 301059
RWRKS

WEATHER ROUNDUP FOR KANSAS
NATIONAL WEATHER SERVICE GOODLAND KS
600 AM CDT MON MAY 30 2016

NOTE:  "FAIR" INDICATES FEW OR NO CLOUDS BELOW 12,000 FEET WITH NO
SIGNIFICANT WEATHER AND/OR OBSTRUCTIONS TO VISIBILITY.

KSZ001>006-013>018-027>032-041>047-301200-
NORTHWEST KANSAS

CITY           SKY/WX    TMP DP  RH WIND       PRES   REMARKS
GOODLAND       CLEAR     56  49  77 S12       30.01F
HAYS           CLEAR     55  46  71 SW5       30.01S
HILL CITY      CLEAR     52  50  93 CALM      29.99R
$$

KSZ061>065-074>080-084>089-301200-
SOUTHWEST KANSAS

CITY           SKY/WX    TMP DP  RH WIND       PRES   REMARKS
DODGE CITY     CLEAR     52  50  93 SW5       30.05S
ELKHART          N/A     48  45  90 SE10        N/A
GARDEN CITY    CLEAR     49  47  93 SE5       30.05R
GREAT BEND     CLEAR     57  48  72 W6        30.02F
LIBERAL        CLEAR     48  41  76 S3        30.08R
$$

KSZ066>073-081>083-090>101-301200-
SOUTHEAST KANSAS

CITY           SKY/WX    TMP DP  RH WIND       PRES   REMARKS
CHANUTE        CLOUDY    64  61  90 S5        30.02F
COFFEYVILLE    PTCLDY    63  62  97 E5        30.03R
HUTCHINSON     CLOUDY    60  57  89 W3        30.04R
MEDICINE LODGE   N/A     59  54  83 CALM      30.04R
NEWTON         CLOUDY    61  55  82 S5        30.05R
PARSONS        CLOUDY    64  62  93 SE3       30.04S
WICHITA INTL   CLOUDY    65  59  81 S3        30.02S
WICHITA JABRA  CLOUDY    61  60  97 S5        30.02F
WINFIELD       CLOUDY    64  61  90 S3        30.04S
$$

KSZ007>012-019>026-033>040-048>060-102>105-301200-
NORTHEAST KANSAS

CITY           SKY/WX    TMP DP  RH WIND       PRES   REMARKS
CONCORDIA      CLOUDY    64  58  80 W3        30.00R
EMPORIA        CLEAR     61  60  97 SE6       30.02F
LAWRENCE       CLEAR     60  59  96 CALM      30.04R
MANHATTAN      MOCLDY    61  58  90 CALM      30.00F
OLATHE IND     CLEAR     63  62  97 S5        30.04R
OLATHE EXE     CLEAR     61  60  97 S5        30.04R
SALINA         PTCLDY    60  58  92 CALM      30.02R
TOPEKA BILLARD CLEAR     63  61  93 CALM      30.03R
TOPEKA FORBES  FOG       62  60  93 S3        30.03R VSB 1/2
$$




USA.gov is the U.S. government's official web portal to all federal, state and local government web resources and services.